Regional Weather Roundup
Issued by NWS

Home | Current Version | Previous Version | Graphics & Text | Print | Product List | Glossary On
Versions: 1 2 3 4 5 6 7 8 9 10 11 12 13 14 15 16 17 18 19 20 21 22 23 24 25 26 27 28 29 30 31 32 33 34 35 36 37 38 39 40 41 42 43 44 45 46 47 48 49 50
000
ASUS43 KMPX 291301
RWRMN
WEATHER ROUNDUP FOR MINNESOTA
NATIONAL WEATHER SERVICE TWIN CITIES/CHANHASSEN MN
800 AM CDT MON AUG 29 2016


NOTE: "FAIR" INDICATES FEW OR NO CLOUDS BELOW 12,000 FEET WITH NO
SIGNIFICANT WEATHER AND/OR OBSTRUCTIONS TO VISIBILITY. N/A MEANS
CURRENT SKY AND/OR WEATHER CONDITIONS ARE NOT AVAILABLE.

MNZ060>063-068>070-291400-
   Twin Cities Metro

CITY           SKY/WX    TMP DP  RH WIND       PRES   REMARKS
TWIN CITIES    MOSUNNY   72  68  87 NE3       30.20R
ST PAUL        SUNNY     71  69  93 CALM      30.21R
CRYSTAL        SUNNY     71  67  87 N7        30.21R
LAKEVILLE      SUNNY     66  66 100 CALM      30.20S FOG
EDEN PRAIRIE   SUNNY     74  68  81 CALM      30.19R
LAKEVILLE      SUNNY     66  66 100 CALM      30.20S FOG
SOUTH ST PAUL  SUNNY     71  70  97 CALM      30.20R
LAKE ELMO      FAIR      70  70 100 N7        30.23R
$$
MNZ001>005-007-008-013>017-022>024-027-028-291400-
   Northwest Minnesota

CITY           SKY/WX    TMP DP  RH WIND       PRES   REMARKS
BEMIDJI        CLOUDY    61  61  98 CALM      30.14R
HALLOCK        CLOUDY    66  64  94 NW7       30.10R FOG
ROSEAU         PTSUNNY   66  61  82 SW5       30.08S
WARROAD        PTSUNNY   64  61  88 CALM      30.09R
THIEF RVR FALL CLOUDY    67  64  90 E3        30.12R
CROOKSTON      CLOUDY    70  66  88 CALM      30.11R
FOSSTON        MOSUNNY   63  63 100 CALM      30.10F
DETROIT LAKES  CLOUDY    66  61  82 S10       30.15R
MOORHEAD       MOSUNNY   72  66  83 SE10      30.08F
PARK RAPIDS    CLOUDY    65  61  87 S10       30.13R
MAHNOMEN       FAIR      66  62  86 S8        30.09F
$$
MNZ006-009>011-018-025>026-291400-
   North Central Minnesota

CITY           SKY/WX    TMP DP  RH WIND       PRES   REMARKS
BAUDETTE       CLOUDY    64  62  93 SE10      30.10S
FLAG ISLAND    CLOUDY    66  64  94 S5        30.07R FOG
INTL FALLS     CLOUDY    63  61  93 VRB3      30.12F
WASKISH        CLOUDY    64  63  94 CALM      30.15R
BIG FORK       CLOUDY    63  61  94 CALM      30.15R
LONGVILLE      CLOUDY    63  63 100 S5        30.13R
GRAND RAPIDS   CLOUDY    61  60  97 CALM      30.16R
ORR            CLOUDY    61  57  88 CALM      30.14R
COOK           CLOUDY    61  61 100 CALM      30.15S
WALKER         FAIR      64  62  93 S6        30.12R
$$
MNZ012-019>021-037-291400-
   Northeast Minnesota

CITY           SKY/WX    TMP DP  RH WIND       PRES   REMARKS
DULUTH         CLOUDY    63  62  97 S7        30.14R
ELY            CLOUDY    63  61  94 SW6       30.14R
HIBBING        CLOUDY    59  59 100 CALM      30.14R
EVELETH        CLOUDY    61  60  97 CALM      30.15S
DULUTH HARBOR  CLOUDY    64  63  94 SW10G23   30.11F
TWO HARBORS    CLOUDY    64  61  88 SW5       30.13R
SILVER BAY     CLOUDY    64  63  94 CALM      30.10F
G MARAIS ARPRT FOG       63  59  88 CALM      30.16R VSB 1/4
$$
MNZ029>031-032-039>041-046>048-054>057-064-291400-
   West Central Minnesota

CITY           SKY/WX    TMP DP  RH WIND       PRES   REMARKS
FERGUS FALLS   CLOUDY    70  66  88 SE13      30.12S
WHEATON        SUNNY     70  68  94 SE13      30.12R
MORRIS         DRIZZLE   70  64  83 SE15G24   30.12F
ALEXANDRIA     CLOUDY    64  64 100 E10       30.17F
ELBOW LAKE     CLOUDY    70  67  90 E8        30.13R
WADENA         CLOUDY    63  61  94 SE10      30.14R
GLENWOOD       TSTM      64  63  94 W14       30.22R
APPLETON       CLOUDY    72  66  83 E9        30.15R
BENSON         CLOUDY    70  64  83 SE9       30.18R
ORTONVILLE     SUNNY     70  66  88 E9        30.12R
MADISON        MOSUNNY   70  66  88 SE6G16    30.12R
WILLMAR        FAIR      70  66  88 E7        30.20R
$$
MNZ033>034-036-042>043-049>051-058-059-291400-
   Central Minnesota

CITY           SKY/WX    TMP DP  RH WIND       PRES   REMARKS
ST CLOUD       LGT RAIN  67  65  93 NE7       30.25R
SAUK CENTRE    TSTM      63  61  94 S9        30.20F
PAYNESVILLE    CLOUDY    71  68  92 NE8       30.23R THUNDER
AITKIN         CLOUDY    66  61  82 CALM      30.12R
PINE RIVER     CLOUDY    63  63 100 S5        30.17R
BRAINERD       CLOUDY    65  62  90 S7        30.15R
STAPLES        CLOUDY    63  61  94 S6        30.15R
LONG PRAIRIE   FAIR      63  61  94 SE12      30.18F
LITTLE FALLS   RAIN      64  61  88 SE15G26   30.16F
LITCHFIELD     PTSUNNY   72  70  94 NE5       30.21R
BUFFALO        SUNNY     68  66  93 NE5       30.22R
MAPLE LAKE     PTSUNNY   70  69  98 N5        30.23R FOG
HUTCHINSON     SUNNY     69  67  93 NE6       30.21R
$$
MNZ037-044-045-052-053-291400-
   East Central Minnesota

CITY           SKY/WX    TMP DP  RH WIND       PRES   REMARKS
PRINCETON      CLOUDY    70  64  83 NW13      30.29R
MORA           CLOUDY    64  63  94 SE3       30.25S
CAMBRIDGE      CLOUDY    72  63  73 NE5       30.24R
RUSH CITY      CLOUDY    67  64  90 NE6       30.25R
MOOSE LAKE     LGT RAIN  63  61  94 S6        30.13F
HINCKLEY       LGT RAIN  64  64 100 CALM      30.23F
CLOQUET        CLOUDY    63  61  94 S8G18     30.14R
MCGREGOR       CLOUDY    63  61  94 CALM      30.13R
$$
MNZ071>073-080-081-089-090-097-098-291400-
   Southwest Minnesota

CITY           SKY/WX    TMP DP  RH WIND       PRES   REMARKS
MONTEVIDEO     MOSUNNY   70  66  88 E13G18    30.18R
GRANITE FALLS  SUNNY     69  66  92 E5        30.17R
CANBY          SUNNY     72  67  83 S3        30.13R
MARSHALL       SUNNY     70  66  87 SW6       30.14R
REDWOOD FALLS  SUNNY     67  64  90 NE5       30.17R
OLIVIA         SUNNY     68  64  88 E6        30.17R
PIPESTONE      SUNNY     66  64  94 S5        30.15R
WINDOM         CLOUDY    70  63  78 CALM      30.17R
WORTHINGTON    MOSUNNY   66  64  93 S5        30.18R
JACKSON          N/A     68  63  83 S6        30.19R
TRACY          SUNNY     69  65  87 SW10      30.15R
SLAYTON        MOSUNNY   66  64  94 S9        30.16R
$$
MNZ065>067-074>077-082>085-091>093-291400-
   South Central Minnesota

CITY           SKY/WX    TMP DP  RH WIND       PRES   REMARKS
MANKATO        CLOUDY    66  64  94 SE8       30.20R
NEW ULM          N/A     66  64  94 SE5       30.18R
ST JAMES       MOSUNNY   63  61  94 CALM      30.19R
FAIRMONT       PTSUNNY   66  64  93 S5        30.19R
GLENCOE        SUNNY     69  68  98 CALM      30.18R
FARIBAULT      SUNNY     70  68  94 S3        30.21R
OWATONNA       PTSUNNY   70  66  88 SE7       30.21R FOG
WASECA         MOSUNNY   64  63  94 E5        30.21R FOG
ALBERT LEA     FOG       70  68  94 SE5       30.21R VSB<1/4
$$
MNZ078>079-086>088-094>096-291400-
   Southeast Minnesota

CITY           SKY/WX    TMP DP  RH WIND       PRES   REMARKS
ROCHESTER      PTSUNNY   67  67 100 S7        30.23R FOG
RED WING       SUNNY     72  70  94 SE3       30.20R
DODGE CENTER   FOG       66  66 100 SE3       30.22R VSB 3/4
WINONA         MOSUNNY   70  68  94 CALM      30.21R
AUSTIN         CLOUDY    66  66 100 SE3       30.22R FOG
PRESTON        MOSUNNY   66  64  95 SE3       30.24R
$$
ABBREVIATIONS USED IN REMARKS
   TC - TEMPERATURES IN CELSIUS
  WCI - WIND CHILL INDEX
   HX - HEAT INDEX
  VSB - VISIBILITY
$$




USA.gov is the U.S. government's official web portal to all federal, state and local government web resources and services.